This demonstration page uses our WeatherBlox Daily Observations layout. Learn more.

Left ArrowRight Arrow

Hourly Observations for April 4, 2021

Temp ( °F °C ) Dew Point ( °F °C ) Humidity (%) Winds ( mph kmh ) Pressure ( in mb ) Visibility ( mi km ) Precip ( " mm )
12:56 am 00:56 Clear 50 10 40 4.4 68 68 SE 7 11 30.04 1017 10 16 0.00 0.00
1:56 am 01:56 Clear 47 8.3 39 3.9 74 74 SE 6 9 30.03 1017 10 16 0.00 0.00
2:56 am 02:56 Clear 46 7.8 40 4.4 79 79 SSE 3 6 30.02 1017 10 16 0.00 0.00
3:56 am 03:56 Clear 44 6.7 40 4.4 85 85 SSE 6 9 30.00 1016 10 16 0.00 0.00
4:56 am 04:56 Clear 44 6.7 41 5 89 89 SSE 5 7 29.99 1016 10 16 0.00 0.00
5:56 am 05:56 Clear 45 7.2 41 5 86 86 S 7 11 29.97 1015 10 16 0.00 0.00
6:56 am 06:56 Clear 42 5.6 40 4.4 92 92 S 7 11 29.97 1015 10 16 0.00 0.00
7:56 am 07:56 Sunny 44 6.7 40 4.4 85 85 WNW 6 9 30.01 1016 10 16 0.00 0.00
8:33 am 08:33 Mostly Sunny 50 10 43 6 76 76 S 10 17 30.02 1016 10 16 0.00 0.00
8:56 am 08:56 Sunny 53 11.7 43 6.1 69 69 SSW 9 15 29.99 1016 10 16 0.00 0.00
9:56 am 09:56 Sunny 59 15 41 5 51 51 SW 8 13 29.99 1016 10 16 0.00 0.00
10:56 am 10:56 Sunny 65 18.3 42 5.6 43 43 Calm 29.98 1015 10 16 0.00 0.00
11:56 am 11:56 Sunny 70 21.1 42 5.6 37 37 VRB 3 6 29.97 1015 10 16 0.00 0.00
12:56 pm 12:56 Sunny 73 22.8 42 5.6 33 33 SSE 9 15 29.94 1014 10 16 0.00 0.00
1:56 pm 13:56 Sunny 79 26.1 40 4.4 25 25 SE 9 15 29.91 1013 10 16 0.00 0.00
2:00 pm 14:00 Hazy 79 26 41 5 26 26 SSE 8 13 29.81 1010 1 2 0.00 0.00
2:09 pm 14:09 Hazy 81 27 39 4 23 23 S 8 13 29.80 1009 3 5 0.00 0.00
2:56 pm 14:56 Sunny 84 28.9 42 5.6 23 23 S 9 15 29.87 1011 10 16 0.00 0.00
3:56 pm 15:56 Sunny 86 30 44 6.7 23 23 SSW 16 26 29.83 1010 10 16 0.00 0.00
4:56 pm 16:56 Sunny 87 30.6 41 5 20 20 SW 18 30 29.80 1009 10 16 0.00 0.00
5:56 pm 17:56 Sunny 85 29.4 40 4.4 20 20 SSW 7 11 29.78 1009 10 16 0.00 0.00
6:27 pm 18:27 Partly Cloudy with Nearby Thunderstorms 82 28 37 3 20 20 SW 24 39 29.70 1006 10 16 0.00 0.00
6:56 pm 18:56 Cloudy with Thunderstorms 82 27.8 36 2.2 19 19 SW 16 26 29.84 1010 10 16 0.00 0.00
7:16 pm 19:16 Mostly Cloudy with Light Rain 79 26 37 3 23 23 S 14 22 29.71 1006 10 16 0.00 0.00
7:23 pm 19:23 Partly Cloudy 79 26 37 3 23 23 S 22 35 29.71 1006 10 16 0.00 0.00
7:56 pm 19:56 Sunny 77 25 39 3.9 26 26 SSE 17 28 29.80 1009 10 16 0.00 0.00
8:56 pm 20:56 Mostly Clear 75 23.9 39 3.9 27 27 S 18 30 29.79 1009 10 16 0.00 0.00
9:56 pm 21:56 Clear 73 22.8 41 5 32 32 SSE 21 33 29.80 1009 10 16 0.00 0.00
10:56 pm 22:56 Clear 69 20.6 45 7.2 42 42 S 14 22 29.79 1009 10 16 0.00 0.00
11:56 pm 23:56 Clear 69 20.6 47 8.3 45 45 S 23 37 29.77 1008 10 16 0.00 0.00

Powered by AerisWeather